Milwaukee, WI

7:23 AM CDT on June 27, 2017 (GMT -0500)
Gen Mitchell International

Weather History for KMKE - March, 2014

Change the Weather History Date:

Saturday, March 22, 2014

  Actual Average Record
Temperature  
Mean Temperature 31 °F 37 °F  
Max Temperature 39 °F 45 °F 77 °F (1938)
Min Temperature 23 °F 29 °F -2 °F (1888)
Degree Days  
Heating Degree Days 34 28  
Month to date heating degree days 823 693  
Since 1 July heating degree days 6479 5673  
Cooling Degree Days 0 0  
Month to date cooling degree days 0 0  
Year to date cooling degree days 0 0  
Moisture  
Dew Point 21 °F    
Average Humidity 56    
Maximum Humidity 76    
Minimum Humidity 35    
Precipitation  
Precipitation T in 0.08 in 1.22 in (1938)
Month to date precipitation 0.50 1.48  
Year to date precipitation 3.24 4.89  
Snow  
Snow T in 0.10 in 10.00 in (1916)
Month to date snowfall 5.8 5.7  
Since 1 July snowfall 62.6 43.5  
Snow Depth 0.00 in    
Sea Level Pressure  
Sea Level Pressure 30.14 in    
Wind  
Wind Speed 12 mph (NW)    
Max Wind Speed 22 mph    
Max Gust Speed 30 mph    
Visibility 10 miles    
Events Snow    
T = Trace of Precipitation, MM = Missing Value Source: NWS Daily Summary

Daily Weather History Graph

Daily Weather History Graph

Search for Another Location

Airport or City:

Trip Planner

Search our weather history database for the weather conditions in past years. The results will help you decide how hot, cold, wet, or windy it might be!

Date:

Astronomy

Mar. 22, 2014 Rise Set
Actual Time 6:51 AM CDT 7:06 PM CDT
Civil Twilight 6:22 AM CDT 7:34 PM CDT
Nautical Twilight 5:49 AM CDT 8:07 PM CDT
Astronomical Twilight 5:15 AM CDT 8:42 PM CDT
Moon 12:32 AM CDT (3/22) 10:27 AM CDT (3/22)
Length of Visible Light 13h 11m
Length of Day
12h 14m
Waning Gibbous, 65% of the Moon is Illuminated
Mar 22
Waning Gibbous
Mar 23
Last Quarter
Mar 30
New
Apr 7
First Quarter
Apr 15
Full

Hourly Weather History & Observations

Time (CDT) Temp. Windchill Dew Point Humidity Pressure Visibility Wind Dir Wind Speed Gust Speed Precip Events Conditions
12:52 AM 39.0 °F 28.8 °F 30.0 °F 70% 29.86 in 10.0 mi WNW 21.9 mph 28.8 mph N/A   Overcast
1:52 AM 39.0 °F 30.3 °F 30.0 °F 70% 29.89 in 10.0 mi NW 16.1 mph 26.5 mph N/A   Mostly Cloudy
2:52 AM 37.9 °F 28.9 °F 30.0 °F 73% 29.93 in 10.0 mi NW 16.1 mph 24.2 mph N/A   Overcast
3:52 AM 37.9 °F 29.2 °F 28.9 °F 70% 29.95 in 10.0 mi NNW 15.0 mph 29.9 mph N/A   Mostly Cloudy
4:52 AM 37.0 °F 27.4 °F 28.0 °F 70% 29.99 in 10.0 mi NNW 17.3 mph 26.5 mph N/A   Mostly Cloudy
5:20 AM 36.0 °F 28.0 °F 27.0 °F 70% 29.98 in 10.0 mi NW 11.5 mph 21.9 mph N/A   Scattered Clouds
5:52 AM 35.1 °F 29.3 °F 27.0 °F 72% 30.03 in 10.0 mi NW 6.9 mph - N/A   Scattered Clouds
6:52 AM 34.0 °F 28.0 °F 26.1 °F 73% 30.07 in 10.0 mi WNW 6.9 mph - N/A   Scattered Clouds
7:52 AM 35.1 °F 28.6 °F 27.0 °F 72% 30.09 in 10.0 mi WNW 8.1 mph - N/A   Scattered Clouds
8:52 AM 36.0 °F 27.5 °F 27.0 °F 70% 30.12 in 10.0 mi WNW 12.7 mph - N/A   Mostly Cloudy
9:52 AM 36.0 °F 27.5 °F 27.0 °F 70% 30.16 in 10.0 mi West 12.7 mph 20.7 mph 0.00 in Snow Light Snow
10:52 AM 36.0 °F 27.1 °F 24.1 °F 62% 30.18 in 10.0 mi NW 13.8 mph - 0.00 in   Overcast
11:27 AM 35.1 °F 25.9 °F 25.0 °F 67% 30.16 in 10.0 mi NW 13.8 mph - N/A   Overcast
11:52 AM 35.1 °F 26.4 °F 24.1 °F 64% 30.20 in 10.0 mi WNW 12.7 mph - N/A   Overcast
12:52 PM 35.1 °F 26.4 °F 23.0 °F 61% 30.21 in 10.0 mi WNW 12.7 mph - N/A   Overcast
1:52 PM 34.0 °F 25.0 °F 23.0 °F 64% 30.21 in 10.0 mi WNW 12.7 mph - N/A   Overcast
2:52 PM 34.0 °F 25.0 °F 21.0 °F 59% 30.22 in 10.0 mi NW 12.7 mph - N/A   Overcast
3:34 PM 35.1 °F 25.5 °F 18.0 °F 50% 30.20 in 10.0 mi WNW 15.0 mph 20.7 mph N/A   Mostly Cloudy
3:52 PM 37.0 °F 28.5 °F 17.1 °F 44% 30.22 in 10.0 mi WNW 13.8 mph - N/A   Mostly Cloudy
4:52 PM 37.9 °F 32.1 °F 15.1 °F 39% 30.22 in 10.0 mi WNW 8.1 mph - N/A   Mostly Cloudy
5:52 PM 35.1 °F 26.4 °F 12.0 °F 39% 30.24 in 10.0 mi WNW 12.7 mph - N/A   Mostly Cloudy
6:52 PM 33.1 °F 24.4 °F 9.0 °F 37% 30.27 in 10.0 mi NW 11.5 mph - N/A   Mostly Cloudy
7:52 PM 30.0 °F 21.1 °F 10.0 °F 43% 30.29 in 10.0 mi NW 10.4 mph - N/A   Scattered Clouds
8:52 PM 28.0 °F 16.1 °F 8.1 °F 43% 30.31 in 10.0 mi NNW 16.1 mph - N/A   Clear
9:52 PM 26.1 °F 14.0 °F 7.0 °F 44% 30.33 in 10.0 mi NNW 15.0 mph 23.0 mph N/A   Clear
10:52 PM 25.0 °F 14.2 °F 9.0 °F 51% 30.35 in 10.0 mi NNW 11.5 mph - N/A   Clear
11:52 PM 24.1 °F 13.7 °F 8.1 °F 51% 30.37 in 10.0 mi NNW 10.4 mph 18.4 mph N/A   Clear